EW7114 Weather Reports


Display with metric or nautical units.
time (UTC)temp
F
wind
direction
speed
MPH
gust
MPH
rain 1hr
in
rain 24hr
in
rain mn
in
humidity
%
barometer
mb
20260904034007 74 150 12.0 21.0 0.00 0.00 0.00 25 1000.3
20260904033506 75 145 14.0 20.0 0.00 0.00 0.00 24 1000.2
20260904033004 75 127 15.0 21.0 0.00 0.00 0.00 24 1000.2
20260904032502 75 137 14.0 21.0 0.00 0.00 0.00 24 1000.3
20260904032001 75 152 15.0 24.0 0.00 0.00 0.00 23 1000.3
20260904031611 75 143 14.0 24.0 0.00 0.00 0.00 23 1000.2
20260904031058 76 141 15.0 26.0 0.00 0.00 0.00 24 1000.1
20260904030557 76 138 15.0 26.0 0.00 0.00 0.00 24 1000.1
20260904030055 76 136 17.0 29.0 0.00 0.00 0.00 23 1000.1
20260904025554 76 126 20.0 29.0 0.00 0.00 0.00 23 1000.1
20260904025053 75 137 17.0 22.0 0.00 0.00 0.00 24 1000.0
20260904024550 75 118 17.0 22.0 0.00 0.00 0.00 24 999.9
20260904024051 75 138 12.0 18.0 0.00 0.00 0.00 25 999.9
20260904023547 75 113 13.0 18.0 0.00 0.00 0.00 25 999.9
20260904023046 74 124 14.0 20.0 0.00 0.00 0.00 25 1000.1
20260904022545 74 155 11.0 15.0 0.00 0.00 0.00 24 1000.0
20260904022044 76 152 11.0 21.0 0.00 0.00 0.00 23 999.9
20260904021549 76 176 16.0 24.0 0.00 0.00 0.00 22 1000.0
20260904021041 76 185 17.0 24.0 0.00 0.00 0.00 22 999.8
20260904020540 76 197 16.0 25.0 0.00 0.00 0.00 22 999.9
20260904020042 76 194 16.0 25.0 0.00 0.00 0.00 22 1000.0
20260904015536 76 176 11.0 19.0 0.00 0.00 0.00 22 999.9
20260904015035 77 157 13.0 24.0 0.00 0.00 0.00 22 1000.0
20260904014533 77 155 14.0 24.0 0.00 0.00 0.00 21 1000.1
20260904014032 77 161 14.0 20.0 0.00 0.00 0.00 21 1000.1
20260904013534 78 161 13.0 24.0 0.00 0.00 0.00 21 1000.0
20260904013029 79 165 16.0 24.0 0.00 0.00 0.00 21 1000.1
20260904012527 79 158 18.0 28.0 0.00 0.00 0.00 21 1000.1
20260904012026 79 142 20.0 28.0 0.00 0.00 0.00 21 1000.1
20260904011525 80 168 16.0 22.0 0.00 0.00 0.00 20 1000.1
20260904011024 80 202 18.0 22.0 0.00 0.00 0.00 21 1000.2
20260904010524 80 190 15.0 30.0 0.00 0.00 0.00 20 1000.1
20260904010022 80 174 19.0 30.0 0.00 0.00 0.00 20 1000.2
20260904005519 80 145 15.0 24.0 0.00 0.00 0.00 20 1000.2
20260904005020 80 191 16.0 25.0 0.00 0.00 0.00 20 1000.3
20260904004515 81 191 18.0 25.0 0.00 0.00 0.00 20 1000.3
20260904004013 81 165 16.0 31.0 0.00 0.00 0.00 20 1000.3
20260904003511 82 194 20.0 31.0 0.00 0.00 0.00 20 1000.4
20260904003011 82 163 16.0 25.0 0.00 0.00 0.00 20 1000.3
20260904002509 82 174 15.0 25.0 0.00 0.00 0.00 20 1000.3
20260904002007 82 177 18.0 30.0 0.00 0.00 0.00 20 1000.3
20260904001505 81 172 16.0 26.0 0.00 0.00 0.00 22 1000.3
20260904001005 81 153 13.0 23.0 0.00 0.00 0.00 22 1000.3
20260904000506 82 144 16.0 22.0 0.00 0.00 0.00 22 1000.3
20260904000002 81 147 13.0 21.0 0.00 0.00 0.00 21 1000.4
20260903235603 81 142 16.0 22.0 0.00 0.00 0.00 22 1000.4
20260903235058 82 157 15.0 22.0 0.00 0.00 0.00 20 1000.5
20260903234557 83 167 16.0 23.0 0.00 0.00 0.00 20 1000.5
20260903234055 83 151 18.0 22.0 0.00 0.00 0.00 20 1000.6
20260903233554 83 140 14.0 25.0 0.00 0.00 0.00 20 1000.5
20260903233053 83 167 16.0 25.0 0.00 0.00 0.00 19 1000.7
20260903232551 83 162 13.0 19.0 0.00 0.00 0.00 21 1000.7
20260903232049 81 147 15.0 26.0 0.00 0.00 0.00 21 1000.7
20260903231554 80 155 16.0 28.0 0.00 0.00 0.00 21 1000.9
20260903231046 80 144 14.0 22.0 0.00 0.00 0.00 21 1000.8
20260903230547 80 184 14.0 22.0 0.00 0.00 0.00 20 1000.9
20260903230048 80 190 16.0 22.0 0.00 0.00 0.00 21 1001.1
20260903225543 80 145 16.0 24.0 0.00 0.00 0.00 21 1001.0
20260903225040 81 160 17.0 26.0 0.00 0.00 0.00 20 1001.3
20260903224544 81 168 14.0 26.0 0.00 0.00 0.00 20 1001.4
20260903224042 82 169 13.0 26.0 0.00 0.00 0.00 21 1001.4
20260903223536 81 190 15.0 20.0 0.00 0.00 0.00 22 1001.4
20260903223036 81 161 16.0 23.0 0.00 0.00 0.00 21 1001.4
20260903222535 81 172 11.0 21.0 0.00 0.00 0.00 21 1001.6
20260903222032 82 153 14.0 23.0 0.00 0.00 0.00 21 1001.7
20260903221544 82 163 15.0 23.0 0.00 0.00 0.00 21 1001.9
20260903221032 81 195 12.0 23.0 0.00 0.00 0.00 20 1001.8
20260903220527 82 192 15.0 24.0 0.00 0.00 0.00 21 1001.8
20260903220026 81 182 10.0 21.0 0.00 0.00 0.00 20 1001.9
20260903215526 81 184 14.0 22.0 0.00 0.00 0.00 19 1001.9
20260903215023 82 181 18.0 22.0 0.00 0.00 0.00 20 1002.0
20260903214522 82 167 13.0 24.0 0.00 0.00 0.00 20 1002.0
20260903214020 81 178 15.0 24.0 0.00 0.00 0.00 19 1002.1
20260903213518 81 138 15.0 22.0 0.00 0.00 0.00 19 1002.1
20260903213021 80 182 12.0 23.0 0.00 0.00 0.00 20 1001.9
20260903212515 80 179 15.0 23.0 0.00 0.00 0.00 20 1002.2
20260903212016 81 149 15.0 21.0 0.00 0.00 0.00 21 1002.1
20260903211512 81 185 11.0 17.0 0.00 0.00 0.00 21 1002.2
20260903211014 81 151 10.0 19.0 0.00 0.00 0.00 21 1002.3
20260903210509 80 152 14.0 26.0 0.00 0.00 0.00 21 1002.4
20260903210009 80 159 18.0 28.0 0.00 0.00 0.00 21 1002.5
20260903205506 80 132 14.0 24.0 0.00 0.00 0.00 21 1002.5
20260903205005 80 164 13.0 20.0 0.00 0.00 0.00 23 1002.6
20260903204506 80 119 11.0 20.0 0.00 0.00 0.00 23 1002.8
20260903204000 80 156 11.0 16.0 0.00 0.00 0.00 22 1002.9
20260903203601 79 163 7.0 19.0 0.00 0.00 0.00 23 1003.0
20260903203059 80 135 9.0 19.0 0.00 0.00 0.00 22 1003.0
20260903202557 79 188 11.0 23.0 0.00 0.00 0.00 21 1003.1
20260903202056 79 129 15.0 23.0 0.00 0.00 0.00 22 1003.2
20260903201554 80 195 10.0 24.0 0.00 0.00 0.00 21 1003.2
20260903201052 79 147 13.0 24.0 0.00 0.00 0.00 21 1003.4
20260903200552 79 128 14.0 22.0 0.00 0.00 0.00 21 1003.5
20260903200051 80 161 13.0 23.0 0.00 0.00 0.00 21 1003.5
20260903195548 79 151 14.0 27.0 0.00 0.00 0.00 20 1003.6
20260903195047 79 136 14.0 24.0 0.00 0.00 0.00 21 1003.6
20260903194546 79 138 16.0 24.0 0.00 0.00 0.00 21 1003.6
20260903194046 79 126 12.0 23.0 0.00 0.00 0.00 20 1003.8
20260903193542 78 154 16.0 23.0 0.00 0.00 0.00 22 1003.8
20260903193041 79 176 14.0 22.0 0.00 0.00 0.00 22 1003.8
20260903192540 79 155 12.0 21.0 0.00 0.00 0.00 20 1004.0
20260903192038 78 153 10.0 21.0 0.00 0.00 0.00 21 1003.9
20260903191539 78 140 8.0 22.0 0.00 0.00 0.00 21 1004.0
20260903191035 79 198 12.0 22.0 0.00 0.00 0.00 20 1004.1
20260903190536 78 151 14.0 23.0 0.00 0.00 0.00 21 1004.3
20260903190032 78 157 12.0 20.0 0.00 0.00 0.00 21 1004.3
20260903185530 78 200 12.0 19.0 0.00 0.00 0.00 20 1004.3
20260903185031 78 146 12.0 19.0 0.00 0.00 0.00 21 1004.4
20260903184527 78 166 15.0 18.0 0.00 0.00 0.00 20 1004.4
20260903184026 78 165 13.0 19.0 0.00 0.00 0.00 21 1004.5
20260903183525 78 150 14.0 20.0 0.00 0.00 0.00 21 1004.6
20260903183023 78 178 11.0 19.0 0.00 0.00 0.00 20 1004.5
20260903182521 77 127 11.0 21.0 0.00 0.00 0.00 22 1004.6
20260903182020 77 159 14.0 21.0 0.00 0.00 0.00 20 1004.8
20260903181518 77 226 14.0 23.0 0.00 0.00 0.00 21 1004.8
20260903181016 77 144 15.0 23.0 0.00 0.00 0.00 21 1004.9
20260903180518 77 140 17.0 23.0 0.00 0.00 0.00 21 1004.9
20260903180030 77 153 11.0 17.0 0.00 0.00 0.00 21 1004.9
20260903175512 78 172 10.0 23.0 0.00 0.00 0.00 21 1005.0
20260903175011 77 147 7.0 16.0 0.00 0.00 0.00 20 1004.9
20260903174509 77 203 11.0 17.0 0.00 0.00 0.00 20 1005.0
20260903174007 76 200 9.0 15.0 0.00 0.00 0.00 20 1005.1
20260903173506 76 221 6.0 17.0 0.00 0.00 0.00 20 1005.1
20260903173004 76 211 10.0 17.0 0.00 0.00 0.00 22 1005.0
20260903172503 76 253 10.0 16.0 0.00 0.00 0.00 21 1005.1
20260903172002 76 207 7.0 14.0 0.00 0.00 0.00 20 1005.2
20260903171600 75 192 6.0 12.0 0.00 0.00 0.00 20 1005.2
20260903171059 75 226 4.0 11.0 0.00 0.00 0.00 21 1005.2
20260903170602 75 227 5.0 11.0 0.00 0.00 0.00 22 1005.2
20260903170058 74 178 4.0 12.0 0.00 0.00 0.00 21 1005.3
20260903165558 74 202 5.0 13.0 0.00 0.00 0.00 22 1005.2
20260903165053 74 152 5.0 13.0 0.00 0.00 0.00 23 1005.2
20260903164601 74 136 6.0 14.0 0.00 0.00 0.00 22 1005.3
20260903164050 73 158 6.0 12.0 0.00 0.00 0.00 22 1005.3
20260903163549 73 122 4.0 10.0 0.00 0.00 0.00 25 1005.3
20260903163048 73 117 6.0 10.0 0.00 0.00 0.00 23 1005.3
20260903162545 73 125 7.0 10.0 0.00 0.00 0.00 27 1005.3
20260903162044 72 161 4.0 10.0 0.00 0.00 0.00 26 1005.4
20260903161543 71 153 5.0 9.0 0.00 0.00 0.00 23 1005.5
20260903161041 71 163 5.0 10.0 0.00 0.00 0.00 25 1005.5
20260903160540 71 124 6.0 10.0 0.00 0.00 0.00 27 1005.6
20260903160039 70 143 5.0 9.0 0.00 0.00 0.00 28 1005.6
20260903155540 69 178 7.0 10.0 0.00 0.00 0.00 27 1005.5
20260903155035 69 147 8.0 10.0 0.00 0.00 0.00 27 1005.6
20260903154535 68 157 6.0 12.0 0.00 0.00 0.00 30 1005.6
20260903154032 67 159 9.0 12.0 0.00 0.00 0.00 31 1005.7
20260903153530 66 135 7.0 11.0 0.00 0.00 0.00 33 1005.7
20260903153030 65 165 5.0 9.0 0.00 0.00 0.00 35 1005.9
20260903152530 65 171 6.0 9.0 0.00 0.00 0.00 34 1006.0
20260903152026 64 172 5.0 9.0 0.00 0.00 0.00 35 1005.9
20260903151528 64 158 6.0 9.0 0.00 0.00 0.00 35 1006.0
20260903151025 63 155 5.0 8.0 0.00 0.00 0.00 34 1006.0
20260903150523 63 176 6.0 8.0 0.00 0.00 0.00 36 1006.0
20260903150022 62 186 5.0 8.0 0.00 0.00 0.00 38 1006.0
20260903145520 60 165 7.0 9.0 0.00 0.00 0.00 39 1006.1
20260903145019 59 147 6.0 7.0 0.00 0.00 0.00 43 1006.1
20260903144517 58 153 5.0 9.0 0.00 0.00 0.00 44 1006.1
20260903144016 57 190 5.0 9.0 0.00 0.00 0.00 45 1006.1
20260903143516 57 143 5.0 7.0 0.00 0.00 0.00 46 1006.0
20260903143014 56 158 5.0 8.0 0.00 0.00 0.00 47 1006.1
20260903142511 55 159 4.0 7.0 0.00 0.00 0.00 52 1006.1
20260903142010 54 170 3.0 5.0 0.00 0.00 0.00 49 1006.1
20260903141508 53 198 3.0 5.0 0.00 0.00 0.00 47 1006.1
20260903141010 51 161 3.0 5.0 0.00 0.00 0.00 50 1006.1
20260903140506 50 161 3.0 5.0 0.00 0.00 0.00 45 1006.1
20260903140004 47 147 3.0 5.0 0.00 0.00 0.00 30 1006.0
20260903135502 45 146 3.0 6.0 0.00 0.00 0.00 19 1006.0
20260903135001 43 192 1.0 5.0 0.00 0.00 0.00 19 1005.9
20260903134559 43 176 2.0 5.0 0.00 0.00 0.00 20 1005.9
20260903134059 43 176 1.0 3.0 0.00 0.00 0.00 17 1005.8
20260903133556 43 1 2.0 3.0 0.00 0.00 0.00 22 1005.8
20260903133055 43 12 0.0 3.0 0.00 0.00 0.00 16 1005.7
20260903132553 43 12 0.0 3.0 0.00 0.00 0.00 15 1005.5
20260903132051 43 21 0.0 7.0 0.00 0.00 0.00 14 1005.5
20260903131550 42 77 0.0 7.0 0.00 0.00 0.00 26 1005.4
20260903131051 43 163 1.0 2.0 0.00 0.00 0.00 28 1005.3
20260903130550 42 163 1.0 3.0 0.00 0.00 0.00 21 1005.1
20260903130109 42 163 1.0 4.0 0.00 0.00 0.00 21 1005.0
20260903125544 42 163 1.0 4.0 0.00 0.00 0.00 23 1005.0
20260903125046 42 163 0.0 2.0 0.00 0.00 0.00 19 1005.0
20260903124541 41 163 1.0 2.0 0.00 0.00 0.00 21 1004.9
20260903124039 41 163 0.0 4.0 0.00 0.00 0.00 24 1004.9
20260903123538 41 163 2.0 5.0 0.00 0.00 0.00 30 1004.9
20260903123037 42 163 3.0 5.0 0.00 0.00 0.00 28 1004.9
20260903122538 42 163 3.0 5.0 0.00 0.00 0.00 28 1004.8
20260903122034 42 189 3.0 5.0 0.00 0.00 0.00 30 1004.8
20260903121540 43 189 0.0 3.0 0.00 0.00 0.00 19 1004.6
20260903121030 42 189 0.0 3.0 0.00 0.00 0.00 21 1004.6
20260903120532 42 189 0.0 3.0 0.00 0.00 0.00 25 1004.5
20260903120030 42 189 0.0 1.0 0.00 0.00 0.00 22 1004.5
20260903115526 42 189 0.0 2.0 0.00 0.00 0.00 18 1004.5
20260903115025 42 189 0.0 3.0 0.00 0.00 0.00 17 1004.4
20260903114524 41 189 0.0 3.0 0.00 0.00 0.00 16 1004.3
20260903114021 41 189 0.0 2.0 0.00 0.00 0.00 15 1004.4
20260903113521 41 189 0.0 4.0 0.00 0.00 0.00 17 1004.3
20260903113027 41 189 1.0 4.0 0.00 0.00 0.00 24 1004.3
20260903112517 42 189 1.0 4.0 0.00 0.00 0.00 27 1004.3
20260903112018 44 99 0.0 0.0 0.00 0.00 0.00 15 1004.2
20260903111514 44 99 0.0 2.0 0.00 0.00 0.00 10 1004.2
20260903111013 44 99 0.0 4.0 0.00 0.00 0.00 7 1004.1
20260903110512 43 99 0.0 2.0 0.00 0.00 0.00 16 1004.0
20260903110017 43 99 0.0 3.0 0.00 0.00 0.00 23 1003.9
20260903105508 43 234 1.0 3.0 0.00 0.00 0.00 26 1003.9
20260903105009 43 234 0.0 3.0 0.00 0.00 0.00 31 1003.8
20260903104506 43 234 0.0 5.0 0.00 0.00 0.00 34 1003.8
20260903104004 44 234 3.0 5.0 0.00 0.00 0.00 32 1003.8
20260903103505 45 120 0.0 3.0 0.00 0.00 0.00 26 1003.7
20260903103001 46 120 1.0 3.0 0.00 0.00 0.00 21 1003.7
20260903102559 45 120 0.0 4.0 0.00 0.00 0.00 18 1003.6
20260903102103 45 120 0.0 4.0 0.00 0.00 0.00 15 1003.6
20260903101605 45 219 0.0 0.0 0.00 0.00 0.00 13 1003.5
20260903101057 44 219 0.0 1.0 0.00 0.00 0.00 12 1003.5
20260903100554 43 219 0.0 4.0 0.00 0.00 0.00 25 1003.4
20260903100053 43 219 0.0 8.0 0.00 0.00 0.00 36 1003.4
20260903095551 43 224 4.0 8.0 0.00 0.00 0.00 38 1003.3
20260903095050 44 201 2.0 7.0 0.00 0.00 0.00 47 1003.2
20260903094554 47 201 2.0 7.0 0.00 0.00 0.00 50 1003.2
20260903094047 48 105 2.0 6.0 0.00 0.00 0.00 46 1003.1
20260903093547 48 105 1.0 6.0 0.00 0.00 0.00 43 1003.1
20260903093047 48 202 0.0 4.0 0.00 0.00 0.00 46 1003.0
20260903092546 48 202 0.0 5.0 0.00 0.00 0.00 41 1003.1
20260903092045 48 146 0.0 5.0 0.00 0.00 0.00 45 1003.0
20260903091543 47 146 1.0 5.0 0.00 0.00 0.00 49 1002.9
20260903091046 47 265 0.0 3.0 0.00 0.00 0.00 48 1002.9
20260903090542 47 265 1.0 3.0 0.00 0.00 0.00 53 1002.8
20260903090041 48 265 1.0 4.0 0.00 0.00 0.00 53 1002.7
20260903085540 49 265 0.0 4.0 0.00 0.00 0.00 53 1002.6
20260903085040 50 265 1.0 3.0 0.00 0.00 0.00 50 1002.7
20260903084540 51 265 0.0 6.0 0.00 0.00 0.00 53 1002.7
20260903084040 51 265 0.0 6.0 0.00 0.00 0.00 54 1002.6
20260903083539 52 265 0.0 0.0 0.00 0.00 0.00 54 1002.7
20260903083039 52 265 0.0 0.0 0.00 0.00 0.00 49 1002.6
20260903082537 51 265 0.0 3.0 0.00 0.00 0.00 53 1002.5
20260903082037 49 265 1.0 3.0 0.00 0.00 0.00 54 1002.6
20260903081542 48 265 1.0 3.0 0.00 0.00 0.00 54 1002.6
20260903081036 47 265 1.0 3.0 0.00 0.00 0.00 54 1002.5
20260903080518 47 265 2.0 3.0 0.00 0.00 0.00 55 1002.5
20260903080035 48 265 0.0 4.0 0.00 0.00 0.00 55 1002.4
20260903075535 50 265 2.0 4.0 0.00 0.00 0.00 54 1002.3
20260903075033 52 103 0.0 0.0 0.00 0.00 0.00 53 1002.3
20260903074534 52 103 0.0 0.0 0.00 0.00 0.00 53 1002.3
20260903074035 53 103 0.0 0.0 0.00 0.00 0.00 54 1002.3
20260903073530 53 103 0.0 0.0 0.00 0.00 0.00 54 1002.2
20260903073031 52 103 0.0 0.0 0.00 0.00 0.00 54 1002.2
20260903072529 51 103 0.0 4.0 0.00 0.00 0.00 54 1002.1
20260903072034 51 103 0.0 4.0 0.00 0.00 0.00 54 1002.0
20260903071528 50 239 0.0 5.0 0.00 0.00 0.00 54 1001.9
20260903071026 51 239 0.0 7.0 0.00 0.00 0.00 54 1001.9
20260903070524 54 234 3.0 5.0 0.00 0.00 0.00 52 1001.7
20260903070033 56 234 2.0 5.0 0.00 0.00 0.00 49 1001.7
20260903065523 58 234 2.0 5.0 0.00 0.00 0.00 47 1001.8
20260903065021 57 234 0.0 8.0 0.00 0.00 0.00 49 1001.7
20260903064521 58 228 5.0 8.0 0.00 0.00 0.00 50 1001.7
20260903064019 59 97 0.0 3.0 0.00 0.00 0.00 51 1001.6
20260903063518 60 97 0.0 3.0 0.00 0.00 0.00 46 1001.7
20260903063016 62 97 1.0 3.0 0.00 0.00 0.00 45 1001.6
20260903062516 62 97 1.0 3.0 0.00 0.00 0.00 42 1001.4
20260903062018 62 132 0.0 3.0 0.00 0.00 0.00 43 1001.4
20260903061515 62 132 2.0 4.0 0.00 0.00 0.00 44 1001.4
20260903061012 63 132 2.0 4.0 0.00 0.00 0.00 45 1001.4
20260903060512 64 143 3.0 5.0 0.00 0.00 0.00 44 1001.4
20260903060012 64 61 1.0 5.0 0.00 0.00 0.00 41 1001.3
20260903055510 64 329 2.0 8.0 0.00 0.00 0.00 41 1001.2
20260903055009 64 21 3.0 6.0 0.00 0.00 0.00 42 1001.2
20260903054529 63 62 0.0 5.0 0.00 0.00 0.00 41 1001.3
20260903054010 63 62 2.0 5.0 0.00 0.00 0.00 45 1001.2
20260903053509 63 212 1.0 5.0 0.00 0.00 0.00 44 1001.2
20260903053008 64 212 2.0 5.0 0.00 0.00 0.00 42 1001.2
20260903052508 64 350 2.0 4.0 0.00 0.00 0.00 43 1001.2
20260903052008 64 259 0.0 2.0 0.00 0.00 0.00 41 1001.2
20260903051508 65 330 0.0 2.0 0.00 0.00 0.00 41 1001.3
20260903051011 65 330 0.0 4.0 0.00 0.00 0.00 41 1001.4
20260903050507 65 330 2.0 4.0 0.00 0.00 0.00 39 1001.4
20260903050009 66 5 0.0 1.0 0.00 0.00 0.00 39 1001.4
20260903045510 66 9 0.0 2.0 0.00 0.00 0.00 39 1001.5
20260903045007 66 18 0.0 2.0 0.00 0.00 0.00 42 1001.4
20260903044507 66 14 0.0 4.0 0.00 0.00 0.00 38 1001.6
20260903044007 65 5 2.0 4.0 0.00 0.00 0.00 38 1001.6
20260903043506 65 307 2.0 4.0 0.00 0.00 0.00 37 1001.6
20260903043009 65 310 2.0 6.0 0.00 0.00 0.00 38 1001.6
20260903042506 65 310 3.0 6.0 0.00 0.00 0.00 39 1001.6
20260903042106 65 318 4.0 6.0 0.00 0.00 0.00 39 1001.5
20260903041506 66 318 4.0 6.0 0.00 0.00 0.00 38 1001.5
20260903041006 66 307 2.0 6.0 0.00 0.00 0.00 39 1001.4
20260903040505 67 307 4.0 8.0 0.00 0.00 0.00 36 1001.4
20260903040008 69 278 5.0 8.0 0.00 0.00 0.00 35 1001.3
20260903035505 70 328 2.0 6.0 0.00 0.00 0.00 33 1001.2
20260903035004 70 16 2.0 6.0 0.00 0.00 0.00 33 1001.1
20260903034504 70 326 2.0 5.0 0.00 0.00 0.00 33 1001.1